Location: Allonne
(49.4086°N, 2.1143°E)
Time: 15:59:17
(UTC+00:00)

Cosmos 1655 Rocket - Pass Details

Date: 03 February 2023
Orbit: 970 x 1006 km, 83.0° (Epoch: 25 March)

Event Time Altitude Azimuth Distance (km) Brightness Sun altitude
Rises 17:24:27 0° 350° (N) 3,702 6.9 -6.0°
Reaches altitude 10° 17:27:00 10° 352° (N) 2,744 6.3 -6.4°
Maximum altitude 17:33:18 83° 81° (E) 988 4.0 -7.4°
Drops below altitude 10° 17:39:31 10° 170° (S) 2,709 6.4 -8.3°
Sets 17:42:01 0° 171° (S) 3,650 7.1 -8.7°
